| time (UTC) | temp F | wind direction | speed knots | gust knots | rain 1hr in | rain 24hr in | rain mn in | humidity % | barometer mb |
| 20260906070046 | 63 | 192 | 0.0 | 0.9 | 0.00 | 0.00 | 0.00 | 53 | 1012.7 |
| 20260906064611 | 64 | 347 | 0.0 | 0.0 | 0.00 | 0.00 | 0.00 | 52 | 1012.8 |
| 20260906063109 | 64 | 347 | 0.0 | 0.0 | 0.00 | 0.00 | 0.00 | 52 | 1012.8 |
| 20260906061506 | 65 | 347 | 0.0 | 0.0 | 0.00 | 0.00 | 0.00 | 53 | 1012.8 |
| 20260906060009 | 66 | 347 | 0.0 | 0.0 | 0.00 | 0.00 | 0.00 | 51 | 1012.8 |
| 20260906054512 | 67 | 347 | 0.0 | 0.0 | 0.00 | 0.00 | 0.00 | 46 | 1012.8 |
| 20260906053009 | 68 | 357 | 0.0 | 5.2 | 0.00 | 0.00 | 0.00 | 44 | 1012.8 |
| 20260906051518 | 68 | 330 | 0.9 | 3.5 | 0.00 | 0.00 | 0.00 | 45 | 1012.8 |
| 20260906050024 | 69 | 338 | 0.0 | 4.3 | 0.00 | 0.00 | 0.00 | 45 | 1012.7 |
| 20260906044524 | 70 | 308 | 0.9 | 6.1 | 0.00 | 0.00 | 0.00 | 46 | 1012.6 |
| 20260906043038 | 70 | 352 | 0.0 | 3.5 | 0.00 | 0.00 | 0.00 | 46 | 1012.6 |
| 20260906041524 | 71 | 330 | 0.0 | 3.5 | 0.00 | 0.00 | 0.00 | 46 | 1012.4 |
| 20260906040052 | 72 | 341 | 0.0 | 3.5 | 0.00 | 0.00 | 0.00 | 46 | 1012.4 |
| 20260906034539 | 72 | 339 | 0.0 | 0.9 | 0.00 | 0.00 | 0.00 | 46 | 1012.3 |
| 20260906033044 | 73 | 345 | 0.0 | 2.6 | 0.00 | 0.00 | 0.00 | 44 | 1012.2 |
| 20260906031539 | 74 | 264 | 0.0 | 2.6 | 0.00 | 0.00 | 0.00 | 43 | 1012.0 |
| 20260906030104 | 75 | 331 | 0.0 | 1.7 | 0.00 | 0.00 | 0.00 | 43 | 1011.9 |
| 20260906024553 | 76 | 331 | 0.0 | 0.9 | 0.00 | 0.00 | 0.00 | 39 | 1011.7 |
| 20260906023113 | 78 | 338 | 0.0 | 3.5 | 0.00 | 0.00 | 0.00 | 33 | 1011.7 |
| 20260906021554 | 80 | 333 | 0.9 | 3.5 | 0.00 | 0.00 | 0.00 | 30 | 1011.8 |
| 20260906020054 | 82 | 316 | 0.0 | 2.6 | 0.00 | 0.00 | 0.00 | 30 | 1011.9 |
| 20260906014615 | 82 | 302 | 0.0 | 5.2 | 0.00 | 0.00 | 0.00 | 29 | 1011.9 |
| 20260906013057 | 82 | 310 | 0.0 | 4.3 | 0.00 | 0.00 | 0.00 | 29 | 1011.8 |
| 20260906011556 | 82 | 319 | 0.0 | 4.3 | 0.00 | 0.00 | 0.00 | 31 | 1011.8 |
| 20260906010053 | 82 | 283 | 0.0 | 3.5 | 0.00 | 0.00 | 0.00 | 31 | 1011.9 |
| 20260906004607 | 82 | 8 | 1.7 | 5.2 | 0.00 | 0.00 | 0.00 | 31 | 1011.9 |
| 20260906003055 | 83 | 323 | 2.6 | 9.6 | 0.00 | 0.00 | 0.00 | 31 | 1011.9 |
| 20260906001552 | 84 | 335 | 0.9 | 4.3 | 0.00 | 0.00 | 0.00 | 31 | 1011.8 |
| 20260906000105 | 85 | 45 | 1.7 | 7.8 | 0.00 | 0.00 | 0.00 | 30 | 1011.8 |
| 20260905234557 | 85 | 347 | 0.0 | 5.2 | 0.00 | 0.00 | 0.00 | 30 | 1011.9 |
| 20260905233056 | 85 | 326 | 0.0 | 1.7 | 0.00 | 0.00 | 0.00 | 30 | 1011.9 |
| 20260905231556 | 85 | 212 | 0.0 | 7.0 | 0.00 | 0.00 | 0.00 | 29 | 1012.0 |
| 20260905230053 | 84 | 281 | 0.9 | 7.0 | 0.00 | 0.00 | 0.00 | 30 | 1012.2 |
| 20260905224604 | 83 | 340 | 0.9 | 6.1 | 0.00 | 0.00 | 0.00 | 30 | 1012.3 |
| 20260905223052 | 83 | 99 | 0.9 | 6.1 | 0.00 | 0.00 | 0.00 | 31 | 1012.3 |
| 20260905221608 | 82 | 23 | 0.9 | 6.1 | 0.00 | 0.00 | 0.00 | 30 | 1012.5 |
| 20260905220010 | 84 | 326 | 0.0 | 5.2 | 0.00 | 0.00 | 0.00 | 32 | 1012.6 |
| 20260905214524 | 82 | 336 | 0.0 | 6.1 | 0.00 | 0.00 | 0.00 | 34 | 1012.7 |
| 20260905213022 | 82 | 349 | 0.9 | 5.2 | 0.00 | 0.00 | 0.00 | 33 | 1012.8 |
| 20260905211524 | 81 | 356 | 0.9 | 6.1 | 0.00 | 0.00 | 0.00 | 34 | 1013.0 |
| 20260905210022 | 80 | 39 | 0.0 | 5.2 | 0.00 | 0.00 | 0.00 | 36 | 1013.1 |
| 20260905204522 | 80 | 24 | 0.0 | 3.5 | 0.00 | 0.00 | 0.00 | 33 | 1013.2 |
| 20260905203042 | 79 | 17 | 0.9 | 3.5 | 0.00 | 0.00 | 0.00 | 37 | 1013.3 |
| 20260905201543 | 79 | 253 | 0.9 | 5.2 | 0.00 | 0.00 | 0.00 | 38 | 1013.4 |
| 20260905200157 | 78 | 293 | 0.9 | 4.3 | 0.00 | 0.00 | 0.00 | 39 | 1013.5 |
| 20260905194542 | 78 | 358 | 0.9 | 5.2 | 0.00 | 0.00 | 0.00 | 40 | 1013.7 |
| 20260905193043 | 77 | 245 | 0.0 | 6.1 | 0.00 | 0.00 | 0.00 | 44 | 1013.7 |
| 20260905191545 | 77 | 228 | 0.9 | 5.2 | 0.00 | 0.00 | 0.00 | 45 | 1013.9 |
| 20260905190050 | 77 | 4 | 0.0 | 6.1 | 0.00 | 0.00 | 0.00 | 45 | 1014.0 |
| 20260905184612 | 76 | 253 | 1.7 | 6.1 | 0.00 | 0.00 | 0.00 | 48 | 1014.0 |
| 20260905183128 | 75 | 341 | 0.0 | 2.6 | 0.00 | 0.00 | 0.00 | 47 | 1014.0 |
| 20260905181540 | 74 | 352 | 0.0 | 4.3 | 0.00 | 0.00 | 0.00 | 52 | 1014.0 |
| 20260905180041 | 74 | 349 | 0.9 | 4.3 | 0.00 | 0.00 | 0.00 | 50 | 1013.9 |
| 20260905174541 | 72 | 264 | 0.0 | 4.3 | 0.00 | 0.00 | 0.00 | 55 | 1014.0 |
| 20260905173042 | 71 | 203 | 0.0 | 3.5 | 0.00 | 0.00 | 0.00 | 57 | 1013.9 |
| 20260905171551 | 71 | 347 | 0.0 | 3.5 | 0.00 | 0.00 | 0.00 | 59 | 1013.9 |
| 20260905170055 | 69 | 332 | 0.0 | 2.6 | 0.00 | 0.01 | 0.00 | 62 | 1013.9 |
| 20260905164611 | 68 | 274 | 0.0 | 0.9 | 0.00 | 0.01 | 0.00 | 63 | 1013.8 |
| 20260905163113 | 66 | 238 | 0.0 | 3.5 | 0.00 | 0.01 | 0.00 | 66 | 1013.9 |
| 20260905161515 | 66 | 309 | 0.0 | 1.7 | 0.00 | 0.01 | 0.00 | 68 | 1013.9 |
| 20260905160041 | 65 | 332 | 0.0 | 1.7 | 0.00 | 0.01 | 0.00 | 71 | 1013.9 |
| 20260905154542 | 64 | 330 | 0.0 | 0.9 | 0.00 | 0.01 | 0.00 | 72 | 1013.9 |
| 20260905153053 | 64 | 316 | 0.0 | 1.7 | 0.00 | 0.01 | 0.00 | 74 | 1013.8 |
| 20260905151543 | 60 | 241 | 0.0 | 0.0 | 0.00 | 0.01 | 0.00 | 77 | 1013.8 |
| 20260905150055 | 58 | 233 | 0.0 | 0.9 | 0.00 | 0.01 | 0.00 | 80 | 1013.8 |
| 20260905144555 | 56 | 278 | 0.0 | 0.0 | 0.00 | 0.01 | 0.00 | 82 | 1013.7 |
| 20260905143055 | 54 | 278 | 0.0 | 0.9 | 0.00 | 0.01 | 0.00 | 84 | 1013.7 |
| 20260905141557 | 52 | 279 | 0.0 | 0.0 | 0.00 | 0.01 | 0.00 | 86 | 1013.6 |
| 20260905140110 | 52 | 279 | 0.0 | 0.0 | 0.00 | 0.01 | 0.00 | 86 | 1013.5 |
| 20260905134610 | 52 | 280 | 0.0 | 0.0 | 0.00 | 0.01 | 0.00 | 86 | 1013.5 |
| 20260905133109 | 52 | 280 | 0.0 | 0.0 | 0.00 | 0.01 | 0.00 | 86 | 1013.4 |
| 20260905131612 | 52 | 200 | 0.0 | 0.9 | 0.00 | 0.01 | 0.00 | 87 | 1013.3 |
| 20260905130121 | 52 | 203 | 0.0 | 0.9 | 0.00 | 0.01 | 0.00 | 86 | 1013.3 |
| 20260905124610 | 52 | 203 | 0.0 | 0.9 | 0.00 | 0.01 | 0.00 | 86 | 1013.2 |
| 20260905123110 | 52 | 228 | 0.0 | 0.9 | 0.00 | 0.01 | 0.00 | 86 | 1013.2 |
| 20260905121609 | 52 | 228 | 0.0 | 0.0 | 0.00 | 0.01 | 0.00 | 85 | 1013.3 |
| 20260905120106 | 52 | 229 | 0.0 | 1.7 | 0.00 | 0.01 | 0.00 | 85 | 1013.3 |
| 20260905114555 | 53 | 231 | 0.0 | 1.7 | 0.00 | 0.01 | 0.00 | 85 | 1013.2 |
| 20260905113054 | 53 | 235 | 0.0 | 0.0 | 0.00 | 0.01 | 0.00 | 85 | 1013.2 |
| 20260905111609 | 53 | 236 | 0.0 | 0.0 | 0.00 | 0.01 | 0.00 | 85 | 1013.4 |
| 20260905110058 | 53 | 236 | 0.0 | 0.0 | 0.00 | 0.01 | 0.00 | 84 | 1013.5 |
| 20260905104554 | 53 | 237 | 0.0 | 0.0 | 0.00 | 0.01 | 0.00 | 83 | 1013.5 |
| 20260905103055 | 53 | 247 | 0.0 | 0.0 | 0.00 | 0.01 | 0.00 | 83 | 1013.6 |
| 20260905101554 | 54 | 266 | 0.0 | 0.0 | 0.00 | 0.01 | 0.00 | 83 | 1013.6 |
| 20260905100018 | 55 | 266 | 0.0 | 0.0 | 0.00 | 0.01 | 0.00 | 82 | 1013.7 |
| 20260905094539 | 55 | 266 | 0.0 | 0.0 | 0.00 | 0.01 | 0.00 | 81 | 1013.6 |
| 20260905093041 | 56 | 266 | 0.0 | 0.0 | 0.00 | 0.01 | 0.00 | 81 | 1013.7 |
| 20260905091539 | 56 | 266 | 0.0 | 0.0 | 0.00 | 0.01 | 0.00 | 81 | 1013.6 |
| 20260905090039 | 56 | 267 | 0.0 | 0.0 | 0.00 | 0.01 | 0.00 | 81 | 1013.6 |
| 20260905084538 | 56 | 287 | 0.0 | 0.0 | 0.00 | 0.01 | 0.00 | 80 | 1013.7 |
| 20260905083038 | 57 | 290 | 0.0 | 0.0 | 0.00 | 0.01 | 0.00 | 78 | 1013.7 |
| 20260905081539 | 57 | 243 | 0.0 | 0.0 | 0.00 | 0.01 | 0.00 | 77 | 1013.7 |
| 20260905080040 | 58 | 240 | 0.0 | 0.0 | 0.00 | 0.02 | 0.00 | 76 | 1013.6 |
| 20260905074545 | 58 | 285 | 0.0 | 0.9 | 0.00 | 0.02 | 0.00 | 76 | 1013.5 |
| 20260905073055 | 59 | 320 | 0.0 | 0.0 | 0.00 | 0.02 | 0.00 | 75 | 1013.4 |
| 20260905071544 | 60 | 214 | 0.0 | 1.7 | 0.00 | 0.02 | 0.00 | 74 | 1013.4 |